QPF
0.02 0.02 0.02 0.02 0.03 0.03 0.04 0.04 0.03 0.02 0.01 0.01 0.00 0.00 0.00 0.00 0.00 0.00 0.00 0.00 0.00 0.01 0.04 0.08 0.09 0.11 0.12 0.09 0.05 0.02 0.01 0.00 0.00 0.00 0.00 0.00 0.00 0.00 0.00 0.00 0.00 0.00 0.00
0.01 0.01 0.01 0.01 0.01 0.01 0.02 0.02 0.02 0.02 0.01 0.01 0.00 0.00 0.00 0.00 0.00 0.00 0.00 0.00 0.00 0.01 0.04 0.07 0.09 0.08 0.10 0.08 0.05 0.03 0.01 0.00 0.00 0.00 0.00 0.00 0.00 0.00 0.00 0.00 0.00 0.00 0.00
0.00 0.00 0.00 0.00 0.00 0.00 0.01 0.01 0.00 0.00 0.00 0.00 0.00 0.00 0.00 0.00 0.00 0.00 0.00 0.00 0.01 0.02 0.04 0.09 0.10 0.10 0.11 0.10 0.06 0.03 0.02 0.01 0.00 0.00 0.00 0.00 0.00 0.00 0.00 0.00 0.00 0.00 0.00
0.00 0.00 0.00 0.00 0.00 0.00 0.00 0.00 0.00 0.00 0.00 0.00 0.00 0.00 0.00 0.00 0.00 0.00 0.00 0.01 0.02 0.02 0.03 0.07 0.11 0.11 0.12 0.13 0.10 0.06 0.03 0.01 0.01 0.00 0.00 0.00 0.00 0.00 0.00 0.00 0.00 0.00 0.00
0.00 0.00 0.00 0.00 0.00 0.00 0.00 0.00 0.00 0.00 0.00 0.00 0.00 0.00 0.00 0.00 0.00 0.01 0.01 0.01 0.02 0.02 0.02 0.04 0.07 0.09 0.12 0.15 0.15 0.13 0.08 0.04 0.01 0.01 0.00 0.00 0.00 0.00 0.00 0.00 0.00 0.00 0.00
0.00 0.00 0.00 0.00 0.00 0.00 0.00 0.00 0.00 0.00 0.00 0.00 0.00 0.00 0.00 0.00 0.00 0.00 0.01 0.01 0.01 0.01 0.01 0.02 0.03 0.04 0.07 0.12 0.18 0.21 0.19 0.13 0.07 0.03 0.01 0.00 0.00 0.00 0.00 0.00 0.00 0.00 0.00
0.00 0.00 0.00 0.00 0.00 0.00 0.00 0.00 0.00 0.00 0.00 0.00 0.00 0.00 0.00 0.00 0.00 0.00 0.00 0.01 0.01 0.01 0.01 0.01 0.02 0.03 0.04 0.08 0.10 0.18 0.25 0.26 0.21 0.12 0.06 0.02 0.00 0.00 0.00 0.00 0.00 0.00 0.00
0.00 0.00 0.00 0.00 0.00 0.00 0.00 0.00 0.00 0.01 0.01 0.01 0.01 0.00 0.00 0.00 0.00 0.00 0.00 0.00 0.00 0.01 0.01 0.01 0.01 0.02 0.03 0.05 0.06 0.09 0.15 0.23 0.28 0.23 0.13 0.06 0.02 0.01 0.00 0.00 0.00 0.00 0.00
0.00 0.00 0.00 0.00 0.00 0.00 0.00 0.00 0.00 0.01 0.01 0.01 0.02 0.02 0.01 0.00 0.00 0.00 0.00 0.00 0.00 0.00 0.01 0.01 0.01 0.02 0.03 0.05 0.08 0.09 0.09 0.15 0.22 0.23 0.19 0.11 0.05 0.02 0.01 0.00 0.00 0.00 0.00
0.00 0.00 0.00 0.00 0.00 0.00 0.00 0.00 0.01 0.01 0.02 0.02 0.02 0.02 0.01 0.00 0.00 0.00 0.00 0.00 0.00 0.00 0.00 0.01 0.02 0.03 0.04 0.06 0.10 0.13 0.15 0.13 0.16 0.18 0.17 0.12 0.06 0.03 0.02 0.01 0.00 0.00 0.00
0.00 0.00 0.00 0.00 0.00 0.00 0.00 0.00 0.01 0.01 0.02 0.02 0.02 0.02 0.02 0.01 0.00 0.00 0.00 0.00 0.00 0.01 0.01 0.01 0.03 0.04 0.06 0.08 0.11 0.13 0.17 0.16 0.14 0.14 0.14 0.10 0.06 0.04 0.03 0.02 0.00 0.00 0.00
0.00 0.00 0.00 0.00 0.00 0.00 0.01 0.01 0.02 0.02 0.03 0.03 0.03 0.03 0.02 0.01 0.01 0.00 0.00 0.00 0.01 0.01 0.01 0.02 0.02 0.04 0.07 0.10 0.13 0.16 0.17 0.17 0.15 0.12 0.10 0.07 0.04 0.03 0.02 0.01 0.00 0.00 0.00
0.00 0.00 0.00 0.00 0.00 0.01 0.02 0.03 0.04 0.05 0.05 0.05 0.05 0.04 0.03 0.02 0.01 0.01 0.01 0.01 0.01 0.01 0.01 0.02 0.03 0.04 0.06 0.09 0.11 0.14 0.14 0.14 0.13 0.10 0.08 0.05 0.02 0.01 0.00 0.00 0.00 0.00 0.00
0.00 0.00 0.00 0.00 0.00 0.01 0.02 0.04 0.06 0.07 0.08 0.09 0.09 0.07 0.06 0.04 0.03 0.02 0.01 0.01 0.01 0.01 0.01 0.01 0.02 0.03 0.05 0.06 0.08 0.09 0.09 0.09 0.08 0.07 0.06 0.04 0.02 0.01 0.00 0.00 0.00 0.00 0.00
0.00 0.00 0.00 0.01 0.02 0.03 0.04 0.06 0.08 0.10 0.11 0.12 0.12 0.12 0.11 0.08 0.06 0.03 0.02 0.01 0.01 0.01 0.01 0.00 0.01 0.02 0.03 0.04 0.05 0.05 0.04 0.05 0.04 0.04 0.04 0.04 0.03 0.01 0.01 0.00 0.00 0.00 0.00
0.01 0.01 0.01 0.01 0.02 0.05 0.08 0.10 0.12 0.13 0.14 0.14 0.13 0.13 0.13 0.12 0.09 0.06 0.03 0.01 0.00 0.00 0.00 0.00 0.01 0.01 0.01 0.02 0.02 0.02 0.02 0.02 0.01 0.01 0.01 0.02 0.02 0.02 0.01 0.01 0.00 0.00 0.00
0.01 0.01 0.02 0.02 0.04 0.06 0.09 0.12 0.14 0.17 0.20 0.19 0.16 0.14 0.13 0.12 0.11 0.08 0.05 0.03 0.01 0.00 0.00 0.00 0.00 0.01 0.01 0.01 0.01 0.01 0.01 0.00 0.00 0.00 0.00 0.00 0.00 0.00 0.00 0.00 0.00 0.00 0.00
0.01 0.01 0.02 0.04 0.05 0.07 0.09 0.13 0.16 0.18 0.21 0.22 0.20 0.17 0.16 0.14 0.11 0.07 0.05 0.04 0.02 0.01 0.00 0.00 0.00 0.00 0.00 0.00 0.01 0.00 0.00 0.00 0.00 0.00 0.00 0.00 0.00 0.00 0.00 0.00 0.00 0.00 0.00
0.01 0.01 0.04 0.06 0.08 0.09 0.11 0.13 0.17 0.19 0.21 0.20 0.19 0.16 0.15 0.14 0.12 0.08 0.04 0.03 0.02 0.01 0.00 0.00 0.00 0.00 0.00 0.00 0.00 0.00 0.00 0.00 0.00 0.01 0.00 0.00 0.00 0.00 0.00 0.00 0.00 0.00 0.00
0.01 0.02 0.04 0.07 0.08 0.09 0.11 0.13 0.15 0.17 0.19 0.21 0.19 0.17 0.15 0.14 0.12 0.10 0.07 0.04 0.03 0.02 0.01 0.00 0.00 0.00 0.00 0.00 0.01 0.01 0.01 0.00 0.01 0.01 0.00 0.00 0.00 0.00 0.00 0.00 0.00 0.00 0.00
0.01 0.01 0.02 0.04 0.05 0.08 0.12 0.11 0.10 0.12 0.15 0.18 0.19 0.20 0.19 0.18 0.16 0.12 0.09 0.06 0.04 0.03 0.02 0.01 0.01 0.01 0.01 0.01 0.01 0.02 0.02 0.01 0.01 0.01 0.00 0.00 0.00 0.00 0.00 0.00 0.00 0.00 0.00
0.01 0.01 0.01 0.02 0.03 0.05 0.13 0.11 0.07 0.08 0.10 0.12 0.16 0.17 0.17 0.16 0.16 0.15 0.12 0.07 0.05 0.04 0.03 0.02 0.02 0.01 0.01 0.01 0.02 0.03 0.04 0.04 0.02 0.01 0.01 0.01 0.01 0.00 0.00 0.00 0.00 0.00 0.00
0.00 0.01 0.01 0.01 0.01 0.03 0.12 0.09 0.03 0.04 0.06 0.08 0.10 0.11 0.10 0.09 0.09 0.10 0.08 0.05 0.04 0.04 0.03 0.04 0.03 0.03 0.02 0.01 0.02 0.03 0.06 0.07 0.04 0.03 0.03 0.03 0.03 0.02 0.01 0.00 0.00 0.00 0.00
0.00 0.01 0.01 0.01 0.00 0.02 0.10 0.09 0.02 0.01 0.03 0.04 0.05 0.06 0.06 0.05 0.05 0.05 0.04 0.03 0.02 0.02 0.03 0.04 0.05 0.07 0.06 0.04 0.03 0.05 0.06 0.08 0.08 0.07 0.06 0.06 0.05 0.03 0.02 0.01 0.00 0.00 0.00
0.00 0.00 0.00 0.00 0.00 0.01 0.06 0.12 0.05 0.00 0.01 0.02 0.02 0.02 0.02 0.02 0.03 0.02 0.03 0.03 0.03 0.04 0.04 0.05 0.07 0.09 0.10 0.09 0.08 0.08 0.09 0.10 0.11 0.11 0.09 0.08 0.07 0.05 0.02 0.01 0.00 0.00 0.00
0.00 0.00 0.00 0.00 0.00 0.00 0.03 0.11 0.11 0.02 0.01 0.01 0.01 0.01 0.01 0.02 0.02 0.01 0.02 0.03 0.03 0.03 0.02 0.01 0.02 0.03 0.04 0.05 0.07 0.09 0.12 0.12 0.11 0.11 0.09 0.06 0.06 0.05 0.03 0.01 0.00 0.00 0.00
MSLP
1016.46 1015.82 1015.17 1014.56 1014.03 1013.60 1013.28 1013.08 1012.98 1012.95 1012.98 1013.04 1013.11 1013.18 1013.24 1013.28 1013.29 1013.28 1013.25 1013.19 1013.13 1013.07 1013.05 1013.08 1013.18 1013.36 1013.61 1013.92 1014.26 1014.61 1014.94 1015.25 1015.51 1015.74 1015.94 1016.13 1016.32 1016.51 1016.70 1016.87 1017.03 1017.16 1017.26
1017.04 1016.32 1015.57 1014.86 1014.22 1013.68 1013.27 1012.98 1012.81 1012.72 1012.70 1012.72 1012.77 1012.83 1012.88 1012.92 1012.93 1012.91 1012.87 1012.80 1012.71 1012.64 1012.60 1012.63 1012.72 1012.91 1013.17 1013.50 1013.86 1014.23 1014.59 1014.92 1015.22 1015.47 1015.71 1015.93 1016.15 1016.37 1016.58 1016.77 1016.94 1017.08 1017.19
1017.55 1016.77 1015.97 1015.18 1014.46 1013.85 1013.35 1012.97 1012.71 1012.54 1012.45 1012.41 1012.41 1012.44 1012.47 1012.50 1012.50 1012.48 1012.42 1012.34 1012.25 1012.16 1012.11 1012.12 1012.22 1012.41 1012.68 1013.02 1013.40 1013.79 1014.18 1014.53 1014.85 1015.14 1015.41 1015.66 1015.91 1016.16 1016.40 1016.62 1016.81 1016.97 1017.08
1017.96 1017.17 1016.34 1015.52 1014.76 1014.08 1013.51 1013.05 1012.69 1012.42 1012.23 1012.11 1012.04 1012.01 1012.01 1012.02 1012.01 1011.99 1011.93 1011.85 1011.75 1011.66 1011.60 1011.60 1011.69 1011.87 1012.14 1012.49 1012.88 1013.29 1013.70 1014.08 1014.42 1014.74 1015.04 1015.32 1015.60 1015.88 1016.15 1016.40 1016.62 1016.80 1016.93
1018.30 1017.51 1016.69 1015.86 1015.08 1014.36 1013.73 1013.17 1012.71 1012.33 1012.03 1011.80 1011.65 1011.56 1011.51 1011.50 1011.49 1011.47 1011.42 1011.34 1011.25 1011.15 1011.09 1011.08 1011.16 1011.33 1011.59 1011.94 1012.33 1012.75 1013.17 1013.57 1013.94 1014.28 1014.61 1014.92 1015.24 1015.54 1015.84 1016.12 1016.37 1016.57 1016.73
1018.55 1017.78 1016.98 1016.17 1015.38 1014.63 1013.94 1013.30 1012.73 1012.23 1011.82 1011.48 1011.24 1011.08 1011.00 1010.97 1010.96 1010.95 1010.92 1010.86 1010.78 1010.69 1010.62 1010.60 1010.66 1010.81 1011.05 1011.38 1011.77 1012.18 1012.61 1013.02 1013.41 1013.78 1014.14 1014.49 1014.83 1015.17 1015.50 1015.80 1016.08 1016.31 1016.49
1018.73 1017.98 1017.19 1016.39 1015.60 1014.83 1014.09 1013.38 1012.71 1012.10 1011.58 1011.14 1010.82 1010.61 1010.49 1010.45 1010.46 1010.48 1010.47 1010.44 1010.37 1010.29 1010.21 1010.18 1010.21 1010.33 1010.54 1010.84 1011.20 1011.60 1012.03 1012.45 1012.86 1013.26 1013.65 1014.02 1014.40 1014.77 1015.13 1015.46 1015.76 1016.01 1016.21
1018.85 1018.08 1017.30 1016.51 1015.72 1014.92 1014.13 1013.35 1012.60 1011.90 1011.29 1010.78 1010.39 1010.14 1010.02 1009.98 1010.01 1010.06 1010.10 1010.09 1010.04 1009.97 1009.88 1009.82 1009.82 1009.89 1010.06 1010.32 1010.65 1011.03 1011.45 1011.87 1012.30 1012.73 1013.15 1013.56 1013.98 1014.38 1014.77 1015.13 1015.45 1015.72 1015.94
1018.89 1018.10 1017.30 1016.50 1015.69 1014.86 1014.03 1013.19 1012.38 1011.61 1010.93 1010.38 1009.96 1009.70 1009.58 1009.57 1009.63 1009.72 1009.79 1009.81 1009.78 1009.71 1009.61 1009.52 1009.47 1009.50 1009.62 1009.83 1010.12 1010.48 1010.88 1011.31 1011.76 1012.21 1012.67 1013.13 1013.58 1014.02 1014.45 1014.83 1015.18 1015.46 1015.69
1018.87 1018.04 1017.20 1016.36 1015.51 1014.65 1013.78 1012.90 1012.04 1011.23 1010.53 1009.95 1009.53 1009.28 1009.18 1009.21 1009.30 1009.43 1009.53 1009.58 1009.56 1009.49 1009.37 1009.26 1009.18 1009.16 1009.23 1009.39 1009.64 1009.97 1010.36 1010.80 1011.26 1011.74 1012.24 1012.74 1013.23 1013.72 1014.17 1014.59 1014.95 1015.25 1015.50
1018.82 1017.91 1017.02 1016.13 1015.23 1014.32 1013.41 1012.49 1011.61 1010.79 1010.08 1009.51 1009.11 1008.88 1008.81 1008.87 1009.00 1009.15 1009.28 1009.34 1009.34 1009.27 1009.15 1009.02 1008.91 1008.86 1008.90 1009.02 1009.24 1009.55 1009.92 1010.36 1010.84 1011.35 1011.88 1012.42 1012.96 1013.47 1013.96 1014.40 1014.79 1015.11 1015.37
1018.74 1017.76 1016.80 1015.84 1014.89 1013.93 1012.98 1012.04 1011.14 1010.32 1009.62 1009.07 1008.70 1008.50 1008.45 1008.53 1008.68 1008.85 1008.99 1009.08 1009.08 1009.02 1008.91 1008.78 1008.68 1008.62 1008.64 1008.74 1008.95 1009.24 1009.61 1010.05 1010.54 1011.07 1011.63 1012.20 1012.76 1013.31 1013.83 1014.29 1014.70 1015.04 1015.32
1018.69 1017.64 1016.60 1015.57 1014.56 1013.55 1012.55 1011.59 1010.68 1009.87 1009.19 1008.66 1008.31 1008.13 1008.10 1008.18 1008.33 1008.51 1008.66 1008.75 1008.78 1008.74 1008.66 1008.56 1008.48 1008.44 1008.48 1008.59 1008.79 1009.08 1009.45 1009.89 1010.39 1010.93 1011.50 1012.09 1012.67 1013.24 1013.77 1014.25 1014.66 1015.02 1015.32
1018.70 1017.58 1016.48 1015.38 1014.30 1013.24 1012.21 1011.23 1010.32 1009.51 1008.84 1008.33 1007.98 1007.80 1007.76 1007.82 1007.96 1008.12 1008.26 1008.37 1008.42 1008.43 1008.40 1008.36 1008.34 1008.36 1008.43 1008.58 1008.80 1009.10 1009.47 1009.91 1010.40 1010.94 1011.52 1012.10 1012.69 1013.26 1013.78 1014.27 1014.69 1015.05 1015.36
1018.82 1017.64 1016.47 1015.32 1014.19 1013.09 1012.02 1011.02 1010.11 1009.30 1008.63 1008.12 1007.76 1007.55 1007.47 1007.49 1007.59 1007.71 1007.85 1007.96 1008.05 1008.11 1008.16 1008.20 1008.27 1008.36 1008.51 1008.70 1008.96 1009.28 1009.66 1010.09 1010.58 1011.10 1011.66 1012.23 1012.80 1013.35 1013.87 1014.34 1014.75 1015.12 1015.43
1019.04 1017.83 1016.62 1015.43 1014.26 1013.12 1012.04 1011.03 1010.11 1009.30 1008.63 1008.09 1007.70 1007.44 1007.30 1007.25 1007.28 1007.36 1007.46 1007.58 1007.70 1007.82 1007.96 1008.10 1008.26 1008.46 1008.68 1008.94 1009.24 1009.58 1009.97 1010.40 1010.87 1011.38 1011.91 1012.45 1012.99 1013.52 1014.01 1014.45 1014.85 1015.20 1015.52
1019.38 1018.16 1016.93 1015.71 1014.52 1013.38 1012.29 1011.28 1010.37 1009.56 1008.87 1008.30 1007.86 1007.53 1007.30 1007.18 1007.12 1007.14 1007.20 1007.31 1007.45 1007.63 1007.83 1008.06 1008.32 1008.61 1008.91 1009.23 1009.58 1009.94 1010.34 1010.76 1011.22 1011.70 1012.21 1012.72 1013.23 1013.72 1014.18 1014.59 1014.97 1015.30 1015.61
1019.83 1018.60 1017.37 1016.15 1014.97 1013.83 1012.76 1011.77 1010.87 1010.06 1009.36 1008.76 1008.26 1007.86 1007.55 1007.32 1007.18 1007.11 1007.12 1007.20 1007.35 1007.55 1007.81 1008.11 1008.44 1008.79 1009.15 1009.52 1009.90 1010.29 1010.69 1011.11 1011.55 1012.02 1012.51 1013.00 1013.48 1013.94 1014.37 1014.76 1015.10 1015.42 1015.71
1020.33 1019.12 1017.91 1016.71 1015.55 1014.45 1013.41 1012.46 1011.58 1010.79 1010.09 1009.47 1008.92 1008.45 1008.05 1007.73 1007.49 1007.34 1007.28 1007.31 1007.43 1007.64 1007.91 1008.24 1008.61 1008.99 1009.38 1009.78 1010.17 1010.56 1010.96 1011.38 1011.82 1012.29 1012.77 1013.25 1013.72 1014.17 1014.58 1014.95 1015.27 1015.57 1015.84
1020.86 1019.68 1018.49 1017.33 1016.21 1015.16 1014.17 1013.27 1012.44 1011.68 1010.99 1010.36 1009.78 1009.26 1008.79 1008.39 1008.06 1007.83 1007.70 1007.67 1007.74 1007.91 1008.16 1008.47 1008.83 1009.21 1009.59 1009.98 1010.36 1010.75 1011.15 1011.57 1012.02 1012.49 1012.98 1013.47 1013.95 1014.40 1014.81 1015.17 1015.48 1015.77 1016.03
1021.38 1020.22 1019.07 1017.95 1016.89 1015.89 1014.96 1014.12 1013.34 1012.63 1011.98 1011.36 1010.78 1010.23 1009.72 1009.26 1008.87 1008.57 1008.36 1008.26 1008.27 1008.38 1008.58 1008.84 1009.15 1009.48 1009.82 1010.17 1010.52 1010.89 1011.28 1011.70 1012.16 1012.65 1013.16 1013.68 1014.18 1014.65 1015.07 1015.44 1015.76 1016.03 1016.28
1021.86 1020.73 1019.62 1018.54 1017.52 1016.57 1015.71 1014.92 1014.21 1013.55 1012.94 1012.36 1011.80 1011.26 1010.74 1010.26 1009.83 1009.48 1009.23 1009.07 1009.01 1009.06 1009.18 1009.37 1009.60 1009.86 1010.14 1010.42 1010.73 1011.06 1011.43 1011.85 1012.31 1012.82 1013.36 1013.90 1014.44 1014.94 1015.39 1015.77 1016.10 1016.38 1016.62
1022.28 1021.18 1020.10 1019.06 1018.07 1017.17 1016.35 1015.62 1014.95 1014.35 1013.79 1013.26 1012.74 1012.24 1011.75 1011.28 1010.86 1010.51 1010.23 1010.04 1009.94 1009.92 1009.97 1010.08 1010.23 1010.41 1010.61 1010.83 1011.08 1011.37 1011.70 1012.10 1012.56 1013.08 1013.63 1014.21 1014.77 1015.30 1015.77 1016.18 1016.52 1016.80 1017.04
1022.64 1021.57 1020.51 1019.49 1018.54 1017.66 1016.86 1016.16 1015.53 1014.97 1014.46 1013.99 1013.53 1013.09 1012.66 1012.25 1011.88 1011.55 1011.29 1011.10 1010.98 1010.93 1010.94 1010.99 1011.08 1011.18 1011.31 1011.47 1011.65 1011.89 1012.18 1012.55 1012.99 1013.49 1014.04 1014.62 1015.19 1015.73 1016.22 1016.65 1017.00 1017.28 1017.52
1022.94 1021.90 1020.87 1019.86 1018.92 1018.04 1017.25 1016.56 1015.95 1015.42 1014.95 1014.52 1014.13 1013.76 1013.42 1013.09 1012.80 1012.55 1012.34 1012.20 1012.10 1012.06 1012.05 1012.08 1012.13 1012.19 1012.26 1012.36 1012.49 1012.67 1012.91 1013.23 1013.62 1014.09 1014.60 1015.15 1015.71 1016.24 1016.73 1017.15 1017.51 1017.80 1018.03
1023.19 1022.19 1021.18 1020.19 1019.24 1018.36 1017.56 1016.86 1016.25 1015.72 1015.28 1014.90 1014.57 1014.28 1014.02 1013.79 1013.60 1013.45 1013.33 1013.26 1013.23 1013.22 1013.25 1013.29 1013.33 1013.37 1013.42 1013.48 1013.57 1013.70 1013.88 1014.13 1014.45 1014.84 1015.30 1015.79 1016.29 1016.79 1017.25 1017.66 1018.01 1018.29 1018.51
Thickness
5609 5614 5620 5625 5630 5634 5638 5642 5645 5647 5649 5651 5653 5656 5658 5661 5664 5667 5670 5673 5676 5677 5679 5682 5684 5685 5686 5687 5687 5688 5688 5688 5689 5689 5690 5691 5692 5693 5694 5695 5696 5697 5698
5591 5597 5604 5610 5616 5621 5626 5630 5634 5637 5640 5643 5646 5649 5651 5654 5658 5661 5664 5668 5671 5673 5675 5677 5680 5682 5683 5684 5684 5684 5685 5685 5685 5686 5686 5687 5688 5690 5691 5692 5693 5694 5694
5574 5579 5586 5593 5599 5606 5612 5618 5623 5627 5630 5634 5637 5641 5644 5647 5651 5654 5658 5661 5665 5668 5671 5673 5676 5677 5679 5680 5680 5681 5681 5681 5681 5682 5682 5683 5684 5685 5687 5688 5689 5690 5691
5557 5562 5568 5575 5582 5590 5597 5604 5611 5615 5619 5623 5627 5631 5635 5639 5643 5647 5651 5655 5658 5662 5665 5668 5670 5672 5674 5675 5675 5676 5677 5677 5677 5677 5677 5678 5679 5680 5682 5683 5684 5685 5686
5537 5542 5549 5557 5564 5573 5581 5589 5597 5602 5608 5613 5617 5621 5626 5630 5635 5639 5643 5647 5651 5655 5659 5662 5664 5666 5668 5669 5670 5671 5672 5672 5672 5672 5672 5672 5673 5674 5675 5676 5677 5679 5680
5516 5522 5530 5537 5545 5554 5564 5572 5580 5588 5595 5601 5606 5611 5616 5620 5625 5630 5635 5640 5644 5647 5651 5654 5657 5660 5662 5664 5665 5666 5666 5666 5666 5666 5666 5666 5666 5666 5667 5669 5670 5671 5673
5494 5501 5508 5516 5524 5533 5542 5552 5561 5572 5581 5586 5590 5596 5603 5608 5614 5620 5624 5630 5635 5639 5643 5646 5649 5652 5655 5657 5659 5660 5661 5661 5661 5661 5660 5659 5659 5659 5660 5661 5662 5664 5665
5469 5478 5485 5493 5502 5512 5523 5532 5540 5551 5564 5571 5576 5580 5585 5593 5602 5608 5613 5618 5624 5629 5633 5638 5641 5644 5647 5649 5652 5654 5655 5655 5655 5655 5654 5653 5653 5653 5653 5654 5655 5656 5657
5445 5453 5461 5470 5480 5489 5500 5510 5519 5529 5542 5553 5560 5565 5570 5580 5587 5592 5599 5605 5611 5616 5622 5627 5631 5635 5638 5641 5644 5646 5648 5649 5648 5647 5647 5647 5646 5646 5647 5647 5648 5649 5650
5420 5429 5438 5447 5456 5466 5477 5488 5500 5508 5519 5533 5542 5550 5557 5565 5569 5577 5583 5588 5595 5602 5609 5615 5620 5624 5628 5631 5635 5638 5640 5642 5641 5640 5638 5638 5639 5639 5639 5639 5640 5640 5642
5399 5407 5416 5426 5435 5445 5455 5465 5476 5488 5498 5511 5522 5530 5536 5541 5550 5559 5566 5572 5577 5585 5593 5600 5607 5612 5616 5620 5624 5628 5631 5633 5633 5632 5629 5628 5629 5630 5631 5631 5631 5631 5632
5382 5389 5398 5407 5416 5425 5434 5444 5454 5466 5478 5490 5501 5509 5517 5525 5532 5538 5545 5552 5559 5566 5574 5583 5590 5597 5603 5607 5611 5615 5619 5622 5623 5621 5619 5617 5618 5618 5620 5620 5620 5621 5622
5368 5376 5383 5391 5399 5407 5415 5424 5433 5444 5456 5468 5479 5489 5498 5509 5517 5524 5528 5532 5539 5547 5556 5565 5573 5582 5588 5592 5596 5600 5603 5606 5607 5606 5605 5604 5603 5604 5605 5606 5608 5609 5610
5352 5361 5369 5377 5385 5393 5400 5407 5415 5425 5435 5445 5457 5468 5477 5487 5495 5504 5512 5516 5519 5527 5536 5547 5555 5564 5571 5576 5580 5583 5585 5588 5589 5589 5588 5588 5588 5589 5590 5591 5593 5595 5596
5339 5347 5355 5364 5373 5381 5388 5394 5400 5408 5415 5425 5436 5446 5456 5465 5473 5483 5492 5501 5507 5509 5519 5527 5535 5544 5552 5558 5562 5565 5567 5569 5570 5570 5570 5571 5572 5573 5575 5576 5578 5580 5582
5326 5333 5341 5349 5359 5367 5375 5381 5386 5392 5399 5408 5417 5426 5436 5445 5454 5463 5472 5480 5487 5495 5501 5508 5516 5524 5531 5538 5542 5546 5549 5551 5552 5554 5555 5556 5556 5558 5560 5562 5563 5565 5568
5313 5319 5325 5333 5341 5349 5357 5363 5370 5377 5385 5393 5401 5411 5420 5429 5438 5446 5454 5460 5466 5474 5481 5487 5494 5502 5509 5516 5521 5525 5530 5534 5535 5538 5540 5541 5542 5543 5545 5547 5548 5550 5552
5298 5304 5309 5315 5322 5330 5337 5343 5351 5360 5369 5379 5387 5396 5405 5414 5421 5429 5437 5443 5448 5455 5462 5468 5474 5481 5488 5495 5500 5504 5509 5514 5518 5521 5523 5524 5525 5526 5529 5531 5533 5535 5537
5282 5287 5293 5298 5304 5312 5320 5326 5332 5340 5350 5360 5371 5380 5389 5398 5403 5410 5418 5425 5431 5438 5444 5450 5454 5461 5467 5474 5479 5483 5488 5493 5498 5502 5504 5506 5507 5509 5511 5514 5516 5518 5520
5266 5271 5277 5282 5288 5296 5305 5311 5316 5322 5330 5340 5350 5360 5370 5379 5386 5393 5401 5407 5413 5421 5428 5434 5437 5443 5449 5455 5462 5465 5467 5472 5477 5482 5485 5487 5489 5491 5494 5497 5500 5501 5503
5247 5253 5260 5266 5273 5281 5290 5298 5301 5306 5312 5320 5330 5339 5349 5360 5371 5379 5385 5391 5398 5405 5412 5419 5423 5427 5432 5438 5445 5450 5452 5453 5455 5461 5464 5467 5471 5473 5474 5478 5481 5483 5485
5227 5234 5241 5248 5256 5264 5274 5285 5287 5290 5295 5302 5310 5318 5328 5339 5349 5361 5370 5377 5384 5390 5397 5403 5409 5413 5415 5420 5428 5434 5436 5439 5439 5445 5447 5443 5448 5451 5455 5460 5463 5465 5467
5207 5214 5221 5229 5237 5246 5257 5268 5274 5274 5280 5285 5292 5299 5309 5319 5327 5336 5346 5356 5364 5372 5379 5383 5389 5392 5396 5402 5412 5420 5424 5426 5425 5426 5428 5425 5428 5431 5436 5441 5445 5447 5448
5188 5194 5202 5210 5218 5227 5238 5249 5257 5260 5265 5270 5276 5283 5292 5301 5310 5317 5325 5334 5342 5349 5356 5363 5369 5374 5379 5385 5393 5402 5407 5405 5403 5405 5412 5411 5410 5412 5416 5421 5425 5427 5429
5172 5176 5183 5191 5199 5207 5219 5230 5240 5245 5249 5254 5261 5269 5277 5285 5294 5300 5306 5313 5320 5326 5334 5342 5349 5355 5362 5369 5376 5384 5389 5394 5390 5387 5392 5396 5395 5394 5396 5400 5404 5407 5411
5158 5161 5167 5173 5180 5188 5200 5212 5222 5228 5233 5239 5245 5253 5262 5270 5278 5282 5286 5292 5298 5302 5309 5317 5324 5330 5336 5344 5352 5359 5368 5375 5376 5372 5372 5378 5378 5381 5380 5381 5385 5389 5392